Mount Ida, AR

5:59 AM CDT on June 28, 2017 (GMT -0500)
Mount Ida

Weather History for KMWT - June, 2013

Change the Weather History Date:

Thursday, June 6, 2013

  Actual Average (KHOT) Record (KHOT)
Temperature  
Mean Temperature 68 °F -  
Max Temperature 73 °F 85 °F 97 °F (1977)
Min Temperature 64 °F 62 °F 52 °F (1989)
Cooling Degree Days 4    
Growing Degree Days 18 (Base 50)    
Moisture  
Dew Point 66 °F    
Average Humidity 88    
Maximum Humidity 100    
Minimum Humidity 73    
Precipitation  
Precipitation 0.13 in - - ()
Sea Level Pressure  
Sea Level Pressure 29.84 in    
Wind  
Wind Speed 0 mph (NW)    
Max Wind Speed 6 mph    
Max Gust Speed -    
Visibility 8 miles    
Events Rain    
Averages and records for this station are not official NWS values.
T = Trace of Precipitation, MM = Missing Value Source: NWS Daily Summary

Daily Weather History Graph

Daily Weather History Graph

Search for Another Location

Airport or City:

Trip Planner

Search our weather history database for the weather conditions in past years. The results will help you decide how hot, cold, wet, or windy it might be!

Date:

Astronomy

Jun. 06, 2013 Rise Set
Actual Time 6:01 AM CDT 8:24 PM CDT
Civil Twilight 5:32 AM CDT 8:54 PM CDT
Nautical Twilight 4:56 AM CDT 9:30 PM CDT
Astronomical Twilight 4:17 AM CDT 10:09 PM CDT
Moon 4:39 AM CDT (6/6) 6:50 PM CDT (6/6)
Length of Visible Light 15h 21m
Length of Day
14h 23m
Waning Crescent, 3% of the Moon is Illuminated
Jun 6
Waning Crescent
Jun 8
New
Jun 16
First Quarter
Jun 23
Full
Jun 29
Last Quarter

Hourly Weather History & Observations

Time (CDT) Temp. Dew Point Humidity Pressure Visibility Wind Dir Wind Speed Gust Speed Precip Events Conditions
12:53 AM 66.9 °F 66.0 °F 97% 29.85 in 7.0 mi Calm Calm - N/A   Clear
1:53 AM 66.0 °F 64.9 °F 96% 29.84 in 7.0 mi Calm Calm - N/A   Clear
2:53 AM 66.0 °F 64.9 °F 96% 29.82 in 7.0 mi Calm Calm - N/A   Clear
3:53 AM 64.9 °F 64.9 °F 100% 29.81 in 7.0 mi Calm Calm - N/A   Partly Cloudy
4:53 AM 64.9 °F 64.0 °F 97% 29.80 in 6.0 mi Calm Calm - N/A   Clear
5:53 AM 64.0 °F 63.0 °F 96% 29.82 in 4.0 mi Calm Calm - N/A   Clear
6:53 AM 64.9 °F 64.0 °F 97% 29.83 in 6.0 mi Calm Calm - N/A   Overcast
7:53 AM 68.0 °F 66.0 °F 93% 29.83 in 10.0 mi Calm Calm - N/A   Overcast
8:53 AM 72.0 °F 64.0 °F 76% 29.84 in 10.0 mi Calm Calm - N/A   Mostly Cloudy
9:53 AM 71.1 °F 63.0 °F 75% 29.86 in 10.0 mi Calm Calm - N/A   Mostly Cloudy
10:53 AM 69.1 °F 64.9 °F 87% 29.89 in 10.0 mi Calm Calm - N/A   Overcast
11:53 AM 68.0 °F 66.0 °F 93% 29.90 in 3.0 mi Calm Calm - 0.04 in Rain Rain
12:53 PM 69.1 °F 66.9 °F 93% 29.88 in 7.0 mi Calm Calm - 0.04 in Rain Light Rain
1:53 PM 70.0 °F 68.0 °F 93% 29.84 in 10.0 mi Calm Calm - 0.05 in   Mostly Cloudy
2:53 PM 71.1 °F 68.0 °F 90% 29.83 in 10.0 mi Calm Calm - N/A   Mostly Cloudy
3:21 PM 73.4 °F 68.0 °F 83% 29.85 in 10.0 mi NNW 3.5 mph - N/A   Mostly Cloudy
3:45 PM 73.4 °F 68.0 °F 83% 29.85 in 10.0 mi Calm Calm - N/A   Overcast
3:53 PM 73.9 °F 68.0 °F 82% 29.82 in 10.0 mi Variable 3.5 mph - N/A   Overcast
4:10 PM 73.4 °F 68.0 °F 83% 29.84 in 10.0 mi Calm Calm - N/A   Mostly Cloudy
4:38 PM 73.4 °F 66.2 °F 78% 29.83 in 10.0 mi NW 3.5 mph - N/A   Overcast
4:53 PM 72.0 °F 66.0 °F 81% 29.81 in 10.0 mi NW 3.5 mph - N/A   Overcast
5:30 PM 73.4 °F 64.4 °F 73% 29.83 in 10.0 mi Variable 5.8 mph - N/A   Mostly Cloudy
5:53 PM 73.0 °F 64.9 °F 76% 29.81 in 10.0 mi NW 3.5 mph - N/A   Mostly Cloudy
6:53 PM 72.0 °F 66.0 °F 81% 29.81 in 10.0 mi Calm Calm - N/A   Mostly Cloudy
7:53 PM 70.0 °F 66.9 °F 90% 29.82 in 10.0 mi Calm Calm - N/A   Clear
8:53 PM 66.9 °F 66.0 °F 97% 29.83 in 5.0 mi Calm Calm - N/A   Mostly Cloudy
9:53 PM 66.9 °F 66.0 °F 97% 29.85 in 8.0 mi Calm Calm - N/A   Mostly Cloudy
10:53 PM 68.0 °F 66.0 °F 93% 29.87 in 9.0 mi Calm Calm - N/A   Overcast
11:53 PM 68.0 °F 64.9 °F 90% 29.87 in 9.0 mi Calm Calm - 0.00 in Rain Light Rain